FW7181 Weather Reports


Display with metric or nautical units.
time (UTC)temp
F
wind
direction
speed
MPH
gust
MPH
rain 1hr
in
rain 24hr
in
rain mn
in
humidity
%
barometer
mb
20260505200645 71 158 11.0 15.0 0.00 0.00 0.00 48 1007.3
20260505200141 70 174 17.0 18.0 0.00 0.00 0.00 49 1007.7
20260505195637 70 183 18.0 22.0 0.00 0.00 0.00 50 1007.1
20260505195135 69 176 9.0 11.0 0.00 0.00 0.00 52 1007.4
20260505194632 69 171 16.0 23.0 0.00 0.00 0.00 53 1007.5
20260505194128 69 158 10.0 14.0 0.00 0.00 0.00 52 1007.7
20260505193625 69 149 8.0 10.0 0.00 0.00 0.00 52 1007.5
20260505193122 69 127 8.0 10.0 0.00 0.00 0.00 52 1007.5
20260505192620 69 169 11.0 14.0 0.00 0.00 0.00 51 1007.4
20260505192117 70 185 14.0 17.0 0.00 0.00 0.00 51 1007.5
20260505191616 70 178 10.0 14.0 0.00 0.00 0.00 51 1007.6
20260505191113 70 169 2.0 3.0 0.00 0.00 0.00 51 1007.4
20260505190609 70 154 10.0 14.0 0.00 0.00 0.00 51 1007.5
20260505190104 70 128 13.0 18.0 0.00 0.00 0.00 51 1007.4
20260505185601 71 178 11.0 16.0 0.00 0.00 0.00 51 1007.4
20260505185057 71 163 9.0 10.0 0.00 0.00 0.00 50 1007.5
20260505184554 71 143 3.0 7.0 0.00 0.00 0.00 50 1007.5
20260505184051 71 92 5.0 6.0 0.00 0.00 0.00 51 1007.5
20260505183547 71 86 4.0 5.0 0.00 0.00 0.00 51 1007.5
20260505183045 71 22 6.0 9.0 0.00 0.00 0.00 51 1007.8
20260505182541 70 333 6.0 9.0 0.00 0.00 0.00 51 1007.6
20260505182037 70 189 6.0 11.0 0.00 0.00 0.00 51 1007.7
20260505181535 70 153 5.0 6.0 0.00 0.00 0.00 53 1007.4
20260505181032 70 187 7.0 9.0 0.00 0.00 0.00 53 1007.7
20260505180527 70 155 13.0 20.0 0.00 0.00 0.00 53 1007.5
20260505180026 70 175 14.0 17.0 0.00 0.00 0.00 52 1007.5
20260505175520 70 176 11.0 15.0 0.00 0.00 0.00 53 1007.3
20260505175018 71 334 5.0 8.0 0.00 0.00 0.00 53 1007.3
20260505174515 69 139 9.0 10.0 0.00 0.00 0.00 54 1007.2
20260505174011 69 159 3.0 3.0 0.00 0.00 0.00 55 1007.4
20260505173507 69 184 5.0 8.0 0.00 0.00 0.00 56 1007.6
20260505173004 68 170 13.0 16.0 0.00 0.00 0.00 55 1007.5
20260505172503 68 170 5.0 11.0 0.00 0.00 0.00 56 1007.5
20260505172002 68 185 10.0 16.0 0.00 0.00 0.00 56 1007.5
20260505171458 68 141 6.0 7.0 0.00 0.00 0.00 56 1007.5
20260505170955 68 146 8.0 11.0 0.00 0.00 0.00 55 1007.6
20260505170447 67 170 11.0 14.0 0.00 0.00 0.00 57 1007.5
20260505165942 67 143 8.0 9.0 0.00 0.00 0.00 58 1007.6
20260505165438 68 63 5.0 6.0 0.00 0.00 0.00 56 1007.5
20260505164934 68 169 9.0 13.0 0.00 0.00 0.00 54 1007.3
20260505164431 69 181 11.0 16.0 0.00 0.00 0.00 54 1007.3
20260505163928 69 145 8.0 11.0 0.00 0.00 0.00 54 1007.5
20260505163427 69 146 13.0 16.0 0.00 0.00 0.00 54 1007.5
20260505162925 69 175 11.0 13.0 0.00 0.00 0.00 54 1007.6
20260505162415 69 188 8.0 16.0 0.00 0.00 0.00 55 1007.6
20260505161912 69 208 18.0 24.0 0.00 0.00 0.00 53 1007.5
20260505161403 69 186 13.0 20.0 0.00 0.00 0.00 53 1007.6
20260505160900 69 180 13.0 23.0 0.00 0.00 0.00 53 1007.3
20260505160359 69 176 17.0 23.0 0.00 0.00 0.00 53 1007.5
20260505153337 68 167 13.0 20.0 0.00 0.00 0.00 56 1007.5
20260505152834 68 182 11.0 15.0 0.00 0.00 0.00 57 1007.7
20260505152332 68 175 15.0 18.0 0.00 0.00 0.00 57 1007.7
20260505151831 68 176 6.0 9.0 0.00 0.00 0.00 58 1007.9
20260505151328 68 207 3.0 6.0 0.00 0.00 0.00 57 1007.8
20260505150826 67 200 13.0 18.0 0.00 0.00 0.00 59 1007.9
20260505150323 68 158 13.0 17.0 0.00 0.00 0.00 58 1008.1
20260505140252 66 138 13.0 25.0 0.00 0.00 0.00 60 1008.0
20260505130216 65 182 9.0 11.0 0.00 0.00 0.00 62 1007.8
20260505124706 64 174 11.0 14.0 0.00 0.00 0.00 64 1008.2
20260505124203 64 198 7.0 9.0 0.00 0.00 0.00 65 1007.9
20260505123659 63 172 11.0 18.0 0.00 0.00 0.00 65 1008.0
20260505123156 63 158 10.0 13.0 0.00 0.00 0.00 66 1008.0
20260505122652 63 186 14.0 21.0 0.00 0.00 0.00 66 1008.3
20260505122149 63 217 15.0 20.0 0.00 0.00 0.00 67 1008.2
20260505121646 62 186 11.0 20.0 0.00 0.00 0.00 67 1008.1
20260505121143 62 192 11.0 14.0 0.00 0.00 0.00 68 1008.1
20260505120639 62 203 5.0 8.0 0.00 0.00 0.00 68 1008.3
20260505120136 62 153 9.0 15.0 0.00 0.00 0.00 69 1008.1
20260505115629 61 206 13.0 17.0 0.00 0.00 0.00 69 1008.1
20260505115127 61 193 11.0 18.0 0.00 0.00 0.00 69 1008.1
20260505114624 61 145 7.0 8.0 0.00 0.00 0.00 68 1008.3
20260505114120 61 190 11.0 15.0 0.00 0.00 0.00 67 1008.2
20260505113617 61 193 12.0 16.0 0.00 0.00 0.00 67 1008.2
20260505113113 61 195 10.0 13.0 0.00 0.00 0.00 67 1008.2
20260505112609 61 238 14.0 20.0 0.00 0.00 0.00 67 1008.2
20260505112108 61 198 10.0 13.0 0.00 0.00 0.00 67 1008.2
20260505111602 61 194 11.0 14.0 0.00 0.00 0.00 68 1008.2
20260505111058 60 182 8.0 10.0 0.00 0.00 0.00 68 1008.0
20260505110554 60 122 3.0 5.0 0.00 0.00 0.00 67 1008.0
20260505102027 60 164 9.0 10.0 0.00 0.00 0.00 68 1007.3
20260505101526 60 163 7.0 9.0 0.00 0.00 0.00 68 1007.2
20260505101021 60 226 5.0 6.0 0.00 0.00 0.00 69 1007.1
20260505100519 60 169 10.0 13.0 0.00 0.00 0.00 68 1007.2
20260505100016 60 146 10.0 13.0 0.00 0.00 0.00 69 1007.1
20260505095511 60 152 7.0 9.0 0.00 0.00 0.00 68 1007.2
20260505095008 60 163 6.0 8.0 0.00 0.00 0.00 69 1007.3
20260505094504 60 172 6.0 8.0 0.00 0.00 0.00 68 1007.1
20260505094001 60 163 7.0 9.0 0.00 0.00 0.00 68 1007.2
20260505093457 60 193 6.0 8.0 0.00 0.00 0.00 68 1007.0
20260505092955 60 184 8.0 10.0 0.00 0.00 0.00 68 1007.2
20260505092452 60 151 7.0 8.0 0.00 0.00 0.00 68 1007.0
20260505091950 60 184 6.0 9.0 0.00 0.00 0.00 67 1007.1
20260505091447 60 150 6.0 8.0 0.00 0.00 0.00 67 1006.9
20260505090945 60 145 4.0 8.0 0.00 0.00 0.00 67 1007.1
20260505090443 61 186 6.0 9.0 0.00 0.00 0.00 67 1007.1
20260505085940 61 197 9.0 13.0 0.00 0.00 0.00 67 1007.1
20260505085438 61 138 7.0 9.0 0.00 0.00 0.00 67 1006.9
20260505084936 60 159 7.0 8.0 0.00 0.00 0.00 67 1007.0
20260505084434 60 165 5.0 6.0 0.00 0.00 0.00 68 1007.0
20260505083931 60 161 6.0 8.0 0.00 0.00 0.00 68 1007.0
20260505083429 60 174 8.0 9.0 0.00 0.00 0.00 68 1006.9
20260505082925 60 172 5.0 6.0 0.00 0.00 0.00 69 1007.0
20260505082420 60 88 2.0 2.0 0.00 0.00 0.00 69 1006.8
20260505081918 60 145 4.0 6.0 0.00 0.00 0.00 70 1007.0
20260505081415 59 152 3.0 5.0 0.00 0.00 0.00 72 1006.9
20260505080911 57 178 6.0 8.0 0.00 0.00 0.00 73 1007.0
20260505080407 57 109 1.0 1.0 0.00 0.00 0.00 81 1006.6
20260505075903 59 14 2.0 2.0 0.00 0.00 0.00 76 1007.1
20260505075400 60 187 7.0 9.0 0.00 0.00 0.00 69 1006.8
20260505074857 60 124 8.0 9.0 0.00 0.00 0.00 69 1006.8
20260505074354 59 136 3.0 5.0 0.00 0.00 0.00 69 1007.0
20260505073851 60 186 7.0 9.0 0.00 0.00 0.00 69 1006.9
20260505073344 0 0.0 0.0 0.00 0.00 0.00 1006.9
20260505072840 60 185 7.0 8.0 0.00 0.00 0.00 67 1007.0
20260505072336 60 185 7.0 8.0 0.00 0.00 0.00 67 1006.9
20260505071832 60 170 6.0 9.0 0.00 0.00 0.00 68 1006.9
20260505071329 60 171 3.0 6.0 0.00 0.00 0.00 69 1007.0
20260505070828 60 154 5.0 7.0 0.00 0.00 0.00 69 1006.9
20260505070324 60 147 5.0 6.0 0.00 0.00 0.00 68 1006.6
20260505065819 60 98 5.0 7.0 0.00 0.00 0.00 68 1006.8
20260505065316 60 180 5.0 7.0 0.00 0.00 0.00 68 1006.6
20260505064813 60 169 5.0 6.0 0.00 0.00 0.00 67 1006.8
20260505064310 60 160 7.0 8.0 0.00 0.00 0.00 68 1006.6
20260505063808 59 128 6.0 7.0 0.00 0.00 0.00 69 1006.9
20260505063304 59 176 2.0 3.0 0.00 0.00 0.00 71 1007.0
20260505062800 60 167 4.0 6.0 0.00 0.00 0.00 68 1006.6
20260505062258 59 185 4.0 6.0 0.00 0.00 0.00 69 1007.0
20260505061755 59 69 4.0 5.0 0.00 0.00 0.00 69 1006.9
20260505061253 59 139 6.0 9.0 0.00 0.00 0.00 69 1007.1
20260505060750 59 100 4.0 5.0 0.00 0.00 0.00 69 1007.0
20260505060247 58 144 5.0 6.0 0.00 0.00 0.00 70 1007.1
20260505055742 58 170 6.0 7.0 0.00 0.00 0.00 70 1007.1
20260505055239 58 170 6.0 7.0 0.00 0.00 0.00 70 1007.2
20260505054736 59 125 6.0 8.0 0.00 0.00 0.00 69 1007.0
20260505054234 59 132 6.0 7.0 0.00 0.00 0.00 69 1007.1
20260505053732 59 173 5.0 7.0 0.00 0.00 0.00 69 1007.1
20260505053228 59 217 5.0 6.0 0.00 0.00 0.00 69 1007.2
20260505052725 59 173 5.0 8.0 0.00 0.00 0.00 70 1007.3
20260505052222 57 187 4.0 6.0 0.00 0.00 0.00 71 1007.4
20260505051719 58 160 3.0 3.0 0.00 0.00 0.00 70 1007.3
20260505051217 57 171 7.0 9.0 0.00 0.00 0.00 73 1007.1
20260505050715 57 219 1.0 2.0 0.00 0.00 0.00 72 1007.4
20260505050213 57 172 3.0 5.0 0.00 0.00 0.00 75 1007.6
20260505041637 58 162 3.0 6.0 0.00 0.00 0.00 71 1007.6
20260505041134 59 183 1.0 1.0 0.00 0.00 0.00 71 1007.5
20260505040631 60 170 3.0 5.0 0.00 0.00 0.00 68 1007.8
20260505040128 60 160 3.0 3.0 0.00 0.00 0.00 68 1007.5
20260505035624 60 165 5.0 8.0 0.00 0.00 0.00 68 1007.4
20260505035121 60 162 4.0 5.0 0.00 0.00 0.00 67 1007.5
20260505034618 61 125 7.0 8.0 0.00 0.00 0.00 67 1007.8
20260505034114 61 177 5.0 6.0 0.00 0.00 0.00 66 1007.6
20260505033611 61 174 3.0 7.0 0.00 0.00 0.00 66 1007.8
20260505033110 61 180 9.0 11.0 0.00 0.00 0.00 66 1007.7
20260505032607 61 202 8.0 8.0 0.00 0.00 0.00 66 1007.7
20260505032103 61 176 6.0 7.0 0.00 0.00 0.00 65 1007.6
20260505031601 62 145 8.0 11.0 0.00 0.00 0.00 65 1007.6
20260505031057 62 187 7.0 9.0 0.00 0.00 0.00 65 1007.6
20260505030554 62 157 8.0 10.0 0.00 0.00 0.00 64 1007.7
20260505030050 62 172 5.0 7.0 0.00 0.00 0.00 64 1007.8
20260505025545 62 205 7.0 9.0 0.00 0.00 0.00 63 1007.6
20260505025045 62 213 7.0 9.0 0.00 0.00 0.00 63 1007.7
20260505024541 62 166 6.0 10.0 0.00 0.00 0.00 63 1007.9
20260505024039 62 181 8.0 10.0 0.00 0.00 0.00 62 1007.9
20260505023536 62 164 5.0 6.0 0.00 0.00 0.00 62 1007.9
20260505023033 62 175 5.0 7.0 0.00 0.00 0.00 62 1008.0
20260505022530 63 186 3.0 5.0 0.00 0.00 0.00 61 1007.6
20260505022027 62 189 4.0 5.0 0.00 0.00 0.00 61 1007.7
20260505021524 62 182 4.0 5.0 0.00 0.00 0.00 61 1007.7
20260505021021 63 189 2.0 3.0 0.00 0.00 0.00 61 1007.7
20260505020521 63 207 5.0 6.0 0.00 0.00 0.00 60 1007.7
20260505020018 63 171 2.0 2.0 0.00 0.00 0.00 59 1007.9
20260505015515 63 184 6.0 8.0 0.00 0.00 0.00 58 1007.6
20260505015012 64 182 3.0 3.0 0.00 0.00 0.00 58 1007.7
20260505014509 64 168 2.0 3.0 0.00 0.00 0.00 58 1007.4
20260505014006 64 194 4.0 5.0 0.00 0.00 0.00 56 1007.6
20260505013503 64 178 7.0 7.0 0.00 0.00 0.00 56 1007.7
20260505013000 64 169 7.0 8.0 0.00 0.00 0.00 56 1007.6
20260505012458 65 148 7.0 8.0 0.00 0.00 0.00 56 1007.5
20260505011955 65 195 6.0 7.0 0.00 0.00 0.00 55 1007.2
20260505011451 65 175 4.0 8.0 0.00 0.00 0.00 55 1007.2
20260505010948 65 194 6.0 8.0 0.00 0.00 0.00 54 1006.9
20260505010443 65 196 8.0 11.0 0.00 0.00 0.00 53 1007.2
20260505005940 65 224 5.0 6.0 0.00 0.00 0.00 53 1006.9
20260505005437 65 191 7.0 9.0 0.00 0.00 0.00 52 1006.9
20260505004934 66 174 3.0 5.0 0.00 0.00 0.00 51 1006.8
20260505004430 66 169 4.0 5.0 0.00 0.00 0.00 52 1006.8
20260505003928 66 197 5.0 7.0 0.00 0.00 0.00 51 1006.9
20260505003425 66 167 5.0 6.0 0.00 0.00 0.00 52 1006.9
20260505002921 66 182 5.0 6.0 0.00 0.00 0.00 51 1006.8
20260505002417 66 183 3.0 6.0 0.00 0.00 0.00 51 1006.8
20260505001916 66 167 5.0 6.0 0.00 0.00 0.00 51 1007.0
20260505001413 66 198 5.0 6.0 0.00 0.00 0.00 50 1006.8
20260505000910 66 157 7.0 7.0 0.00 0.00 0.00 50 1006.9
20260505000408 66 213 5.0 6.0 0.00 0.00 0.00 50 1006.8
20260504235904 66 190 6.0 8.0 0.00 0.00 0.00 49 1006.6
20260504235402 66 174 8.0 9.0 0.00 0.00 0.00 49 1006.9
20260504234858 66 209 5.0 6.0 0.00 0.00 0.00 49 1006.8
20260504234355 66 125 6.0 7.0 0.00 0.00 0.00 49 1006.6
20260504233852 67 170 5.0 7.0 0.00 0.00 0.00 49 1006.8
20260504233348 67 159 6.0 8.0 0.00 0.00 0.00 48 1006.6
20260504232844 67 182 9.0 11.0 0.00 0.00 0.00 48 1006.8
20260504232342 67 205 10.0 16.0 0.00 0.00 0.00 48 1006.5
20260504231838 67 160 4.0 7.0 0.00 0.00 0.00 48 1006.8
20260504231335 67 160 13.0 16.0 0.00 0.00 0.00 48 1006.6
20260504230831 67 199 8.0 10.0 0.00 0.00 0.00 47 1006.8
20260504230329 67 154 10.0 17.0 0.00 0.00 0.00 47 1006.6
20260504225828 67 172 7.0 10.0 0.00 0.00 0.00 47 1006.8
20260504225324 68 173 9.0 14.0 0.00 0.00 0.00 47 1006.6
20260504224821 68 200 9.0 11.0 0.00 0.00 0.00 45 1006.6
20260504224318 68 190 10.0 16.0 0.00 0.00 0.00 46 1006.5
20260504223815 69 166 13.0 16.0 0.00 0.00 0.00 45 1006.5
20260504223310 68 163 12.0 15.0 0.00 0.00 0.00 46 1006.5
20260504222807 69 176 12.0 14.0 0.00 0.00 0.00 45 1006.5
20260504222305 69 209 20.0 24.0 0.00 0.00 0.00 45 1006.8
20260504221802 68 155 12.0 15.0 0.00 0.00 0.00 45 1006.4
20260504221259 68 197 13.0 17.0 0.00 0.00 0.00 45 1006.5
20260504220755 69 191 4.0 5.0 0.00 0.00 0.00 44 1006.3
20260504220252 69 176 15.0 18.0 0.00 0.00 0.00 44 1006.1
20260504215750 69 176 8.0 9.0 0.00 0.00 0.00 44 1006.6
20260504215246 69 193 7.0 9.0 0.00 0.00 0.00 44 1006.4
20260504214742 70 186 15.0 18.0 0.00 0.00 0.00 43 1006.5
20260504214238 69 197 5.0 6.0 0.00 0.00 0.00 44 1006.3
20260504213735 69 195 11.0 14.0 0.00 0.00 0.00 44 1006.4
20260504213232 68 168 10.0 13.0 0.00 0.00 0.00 45 1006.3
20260504212729 70 163 6.0 8.0 0.00 0.00 0.00 43 1006.6
20260504212225 69 169 10.0 15.0 0.00 0.00 0.00 42 1006.5
20260504211723 69 175 11.0 15.0 0.00 0.00 0.00 42 1006.5
20260504211219 68 123 7.0 9.0 0.00 0.00 0.00 42 1006.4
20260504210716 69 217 13.0 20.0 0.00 0.00 0.00 43 1006.5
20260504210213 69 193 12.0 20.0 0.00 0.00 0.00 43 1006.6
20260504205710 69 191 12.0 14.0 0.00 0.00 0.00 43 1006.4
20260504205208 69 194 11.0 13.0 0.00 0.00 0.00 43 1006.4
20260504204706 69 178 17.0 21.0 0.00 0.00 0.00 43 1006.8
20260504204205 69 180 4.0 9.0 0.00 0.00 0.00 40 1006.3
20260504203703 69 170 13.0 17.0 0.00 0.00 0.00 42 1006.9
20260504203201 70 153 15.0 18.0 0.00 0.00 0.00 41 1006.6
20260504202700 69 145 6.0 9.0 0.00 0.00 0.00 42 1006.6
20260504202158 69 211 8.0 15.0 0.00 0.00 0.00 41 1006.9
20260504201654 69 148 10.0 14.0 0.00 0.00 0.00 41 1006.9
20260504201152 68 178 12.0 14.0 0.00 0.00 0.00 43 1006.6